Location: Macksville High School
(37.9611°N, 99.9654°W)
Time: 23:40:46
(UTC+00:00)

CZ-4B R/B - Pass Details

Date: 17 January 2021
Orbit: 387 x 458 km, 97.6° (Epoch: 07 March)

Event Time Altitude Azimuth Distance (km) Brightness Sun altitude
Rises 12:06:44 0° 180° (S) 2,404 5.2 -20.8°
Reaches altitude 10° 12:08:46 10° 186° (S) 1,553 4.2 -20.4°
Enters shadow 12:10:06 21° 197° (SSW) 1,042 3.1 -20.2°
